sat.trackr.live / text

‹ back to catalog

LEMUR-2-DEVERILL-M-T

NORAD 57391 · 2023-100F

PAYLOAD ACTIVE UNKNOWN

§ Identity

Operator
Country
US
Launch date
2023-07-18
Launch site
RLLB
Launch vehicle
Mass (kg)
RCS (m²)

Purposes: earth_obs

External: N2YO · Heavens-Above · Gunter

§ Orbital elements

Epoch: 2026-05-25T00:37:13.953216Z

Period
93.60 min
Inclination
99.4490°
Eccentricity
0.0008090
Mean motion
15.38458722 rev/d
Perigee alt
445.1 km
Apogee alt
456.2 km
Semi-major
6,828.8 km
B*
6.3545e-4
RAAN
177.1219°
Arg perigee
117.9987°
Mean anomaly
242.2071°
Rev number
15,768

§ Raw data

LEMUR-2-DEVERILL-M-T1 57391U 23100F   26145.02585594  .00024071  00000+0  63545-3 0  99962 57391  99.4490 177.1219 0008090 117.9987 242.2071 15.38458722157689

JSON: /api/v1/satellites/57391 · /tle

For live sub-satellite position, see the globe view (requires WebGL).

§ Visibility from observer

Set your observer location to see the next 7 days of passes ≥ 10°. The values pass through the URL so the page stays shareable.

No JS? Fill the form by hand. The geolocation button needs JavaScript.